Miscellaneous Local Product
Issued by NWS North Platte, NE

Home | Current Version | Previous Version | Text Only | Print | Product List | Glossary On
Versions: 1 2 3 4 5 6 7 8 9 10 11 12 13 14 15 16 17 18 19 20 21 22 23 24 25 26 27 28 29 30 31 32 33 34 35 36 37 38 39 40 41 42 43 44 45 46 47 48 49 50
000
AXUS43 KLBF 270810
MISLBF


WESTERN AND NORTH CENTRAL NEBRASKA HOURLY WEATHER ROUNDUP
NATIONAL WEATHER SERVICE NORTH PLATTE NE
300 AM CDT WED APR 27 2016

NOTE: "FAIR" INDICATES FEW OR NO CLOUDS BELOW 12,000 FEET WITH NO
SIGNIFICANT WEATHER AND/OR OBSTRUCTIONS TO VISIBILITY.

NOTE: STATIONS NOT REPORTING VARIABLES SUCH AS SKY/WEATHER OR
PRESSURE ARE PROVIDED BY RAWS AND APRS NETWORKS AND ARE NOT UNDER
NATIONAL WEATHER SERVICE QUALITY CONTROL.

...OBSERVATIONS IN AND NEAR THE EASTERN PANHANDLE OF NEBRASKA...

CITY           SKY/WX    TMP DP  RH WIND       PRES   REMARKS
PINE RIDGE     CLOUDY    37  35  92 NW8       29.81F WCI  31
CHADRON        MIX PCPN  37  35  92 NW9       29.85S FOG     WCI  30
ALLIANCE       CLOUDY    33  31  92 NW14      29.80F WCI  23
SIDNEY         CLOUDY    33  29  85 NW17      29.80R WCI  22
CRESCENT LAKE    N/A     35  34  95 NW13        N/A  WCI  26
BIG SPRINGS      N/A     40  38  91 NW6         N/A
$$

...OBSERVATIONS IN NORTHERN NEBRASKA AND FAR SOUTHERN SOUTH DAKOTA...

CITY           SKY/WX    TMP DP  RH WIND       PRES   REMARKS
WINNER         LGT RAIN  45  42  89 NE13      29.76F
VALENTINE      CLOUDY    44  42  93 N10       29.76S
THEDFORD       RAIN      44  43  97 N15       29.71F
AINSWORTH      RAIN      44  44  99 N7        29.73R
O`NEILL        LGT RAIN  48  47  95 N16       29.67F
ORD            LGT RAIN  48  47  96 N17       29.58F
BROKEN BOW     RAIN      47  47 100 N21G29    29.58F FOG
VALENTINE NWR    N/A     42  42  99 N13         N/A
BUTTE            N/A     44  43  97 N15         N/A
HALSEY           N/A     43  43  99 N9G18       N/A
CHAMBERS         N/A     48  47  98 N3G12       N/A
EWING            N/A     50  49  95 NE12G22     N/A
$$

...OBSERVATIONS IN SOUTHWEST NEBRASKA AND FAR NORTHEAST COLORADO...

CITY           SKY/WX    TMP DP  RH WIND       PRES   REMARKS
IMPERIAL       CLOUDY    41  37  86 NW23G30   29.72F
OGALLALA       CLOUDY    40  35  81 W12G17    29.76R WCI  33
NORTH PLATTE   CLOUDY    44  41  89 NW16G23   29.67F
MCCOOK         CLOUDY    45  42  89 W16       29.65F FOG
LEXINGTON      HVY RAIN  48  46  91 W12       29.57S
STAPLETON        N/A     42  41  95 N5G12       N/A
GOTHENBURG       N/A     46  42  85 NW12        N/A
CALLAWAY         N/A     44  43  95 N16         N/A
$$

...OBSERVATIONS IN CENTRAL LINCOLN COUNTY AREA...

CITY           SKY/WX    TMP DP  RH WIND       PRES   REMARKS
N.P. AIRPORT   CLOUDY    44  41  89 NW16G23   29.67F
N.P. DOWNTOWN    N/A     44  41  89 NW10G18     N/A
N.P. SOUTHEAST   N/A     44  40  87 N9G20       N/A
N.P. HILLCREST   N/A     43  41  92 N20G30      N/A
$$

...SOME OBSERVATIONS FROM AROUND THE REGION...

CITY           SKY/WX    TMP DP  RH WIND       PRES   REMARKS
DENVER         FLURRIES  33  26  75 N5        29.86F WCI  29
LARAMIE        CLOUDY    23  21  92 NW13      29.85S WCI  11
CHEYENNE       CLOUDY    27  26  96 N13       29.83S WCI  16
SCOTTSBLUFF    CLEAR     33  29  85 W13       29.83F WCI  24
RAPID CITY     LGT RAIN  37  36  96 N14       29.86S FOG     WCI  28
BISMARCK       CLOUDY    40  40 100 E8        29.94F FOG     WCI  34
PIERRE         LGT RAIN  42  41  96 NE10      29.81F
SIOUX FALLS    LGT RAIN  45  42  89 E16       29.77F
OMAHA          RAIN      57  54  89 E26G32    29.61F FOG
GRAND ISLAND   RAIN      57  55  93 E15       29.52F FOG
KANSAS CITY    RAIN      59  58  96 SW7       29.60R FOG
WICHITA        CLOUDY    55  52  89 S7        29.51F
OKLAHOMA CITY  MOCLDY    56  56 100 SW10      29.58S
DALLAS         CLOUDY    63  59  87 SE6       29.62R
AMARILLO       CLEAR     52  24  33 W16       29.69R
DODGE CITY     CLOUDY    50  45  83 NW22G32   29.58R
HAYS           MOCLDY    52  43  71 NW21G26   29.50R
GOODLAND       LGT RAIN  41  39  93 NW20G25   29.71S
$$




USA.gov is the U.S. government's official web portal to all federal, state and local government web resources and services.